This is the latest recevied weather packets stored in our database for station/object KJ5SC. If no packets are shown the sender has not sent any weather packets the latest 10 day(s).
| Time | Temp. | Humidity | Pressure | Rain* | Wind** | Luminosity | Snow |
|---|---|---|---|---|---|---|---|
| 1787663550 | 26.67° C | 91% | 1019.9 hPa | 0 mm | - | 39 W/m² | - |
| 1787663239 | 26.67° C | 91% | 1020.1 hPa | 0 mm | - | 37 W/m² | - |
| 1787662936 | 26.67° C | 92% | 1020 hPa | 0 mm | - | 38 W/m² | - |
| 1787662635 | 26.67° C | 92% | 1019.9 hPa | 0 mm | - | 46 W/m² | - |
| 1787662330 | 26.67° C | 92% | 1019.9 hPa | 0 mm | - | 35 W/m² | - |
| 1787662026 | 26.67° C | 92% | 1019.9 hPa | 0 mm | - | 30 W/m² | - |
| 1787661722 | 26.11° C | 92% | 1020.1 hPa | 0 mm | - | 25 W/m² | - |
| 1787661421 | 26.11° C | 93% | 1020.1 hPa | 0 mm | - | 20 W/m² | - |
| 1787661121 | 26.11° C | 93% | 1020.1 hPa | 0 mm | - | 16 W/m² | - |
| 1787660819 | 26.11° C | 93% | 1019.7 hPa | 0 mm | - | 14 W/m² | - |
| 1787660515 | 26.11° C | 93% | 1019.8 hPa | 0 mm | - | 11 W/m² | - |
| 1787660214 | 26.11° C | 93% | 1019.5 hPa | 0 mm | - | 10 W/m² | - |
| 1787659910 | 26.11° C | 92% | 1019.6 hPa | 0 mm | - | 8 W/m² | - |
| 1787659606 | 26.11° C | 93% | 1019.3 hPa | 0 mm | - | 5 W/m² | - |
| 1787659303 | 26.11° C | 92% | 1019.3 hPa | 0 mm | - | 3 W/m² | - |
| 1787659003 | 26.11° C | 92% | 1019.2 hPa | 0 mm | - | 2 W/m² | - |
| 1787658702 | 26.11° C | 92% | 1019 hPa | 0 mm | - | 1 W/m² | - |
| 1787658397 | 26.11° C | 92% | 1019 hPa | 0 mm | - | 0 W/m² | - |
| 1787658094 | 26.11° C | 92% | 1019.1 hPa | 0 mm | - | 0 W/m² | - |
| 1787657794 | 26.11° C | 92% | 1018.9 hPa | 0 mm | - | 0 W/m² | - |
| 1787657490 | 26.11° C | 92% | 1018.7 hPa | 0 mm | - | 0 W/m² | - |
| 1787657189 | 26.11° C | 92% | 1018.9 hPa | 0 mm | - | 0 W/m² | - |
| 1787656885 | 26.11° C | 92% | 1018.5 hPa | 0 mm | - | 0 W/m² | - |
| 1787656581 | 26.11° C | 92% | 1018.5 hPa | 0 mm | - | 0 W/m² | - |
| 1787656276 | 26.11° C | 92% | 1018.6 hPa | 0 mm | - | 0 W/m² | - |
* Rain latest hour (hover to see other rain measurements)
** Current wind speed in m/s (hover to see current wind gust speed)